This is the latest recevied weather packets stored in our database for station/object K6CED. If no packets are shown the sender has not sent any weather packets the latest 10 day(s).
| Time | Temp. | Humidity | Pressure | Rain* | Wind** | Luminosity | Snow |
|---|---|---|---|---|---|---|---|
| 1787863455 | 34.44° C | 43% | 1014.8 hPa | 0 mm | - | 356 W/m² | - |
| 1787863152 | 35° C | 42% | 1014.7 hPa | 0 mm | - | 350 W/m² | - |
| 1787862847 | 34.44° C | 44% | 1014.9 hPa | 0 mm | - | 675 W/m² | - |
| 1787862547 | 34.44° C | 45% | 1014.6 hPa | 0 mm | - | 597 W/m² | - |
| 1787862242 | 35° C | 46% | 1014.9 hPa | 0 mm | - | 513 W/m² | - |
| 1787861936 | 35° C | 47% | 1014.7 hPa | 0 mm | - | 703 W/m² | - |
| 1787861631 | 35.56° C | 46% | 1014.8 hPa | 0 mm | - | 505 W/m² | - |
| 1787861329 | 35° C | 44% | 1014.7 hPa | 0 mm | - | 595 W/m² | - |
| 1787861024 | 35.56° C | 43% | 1014.6 hPa | 0 mm | - | 637 W/m² | - |
| 1787860723 | 35.56° C | 43% | 1014.9 hPa | 0 mm | - | 586 W/m² | - |
| 1787860419 | 35.56° C | 42% | 1014.7 hPa | 0 mm | - | 468 W/m² | - |
| 1787860118 | 35.56° C | 43% | 1014.8 hPa | 0 mm | - | 410 W/m² | - |
| 1787859814 | 35° C | 43% | 1014.9 hPa | 0 mm | - | 546 W/m² | - |
| 1787859514 | 35.56° C | 42% | 1015 hPa | 0 mm | - | 577 W/m² | - |
| 1787859208 | 36.67° C | 40% | 1015.1 hPa | 0 mm | - | 829 W/m² | - |
| 1787858905 | 36.11° C | 40% | 1014.9 hPa | 0 mm | - | 703 W/m² | - |
| 1787858600 | 36.11° C | 40% | 1015.2 hPa | 0 mm | - | 891 W/m² | - |
| 1787858295 | 36.11° C | 38% | 1015.3 hPa | 0 mm | - | 587 W/m² | - |
| 1787857990 | 36.67° C | 35% | 1015.3 hPa | 0 mm | - | 542 W/m² | - |
| 1787857686 | 35.56° C | 36% | 1015.2 hPa | 0 mm | - | 706 W/m² | - |
| 1787857381 | 36.11° C | 36% | 1015.2 hPa | 0 mm | - | 377 W/m² | - |
| 1787857079 | 35.56° C | 37% | 1015.5 hPa | 0 mm | - | 366 W/m² | - |
| 1787856774 | 36.11° C | 38% | 1015.6 hPa | 0 mm | - | 555 W/m² | - |
| 1787856468 | 36.11° C | 38% | 1015.4 hPa | 0 mm | - | 611 W/m² | - |
| 1787856164 | 35.56° C | 38% | 1015.3 hPa | 0 mm | - | 528 W/m² | - |
* Rain latest hour (hover to see other rain measurements)
** Current wind speed in m/s (hover to see current wind gust speed)